M I D A S
Marine Information and Data Acquisition System
Tripno 1673 of the Zeeleeuw from 2009-04-08 07:38:57 to 2009-04-08 15:30:15
Back to CruiseResearch ActivitiesStationsMapUnderway DataData graphs

EquipmentUnitsComments
TimeDGPSUTC
LatitudeDGPSDM.mWGS84
LongitudeDGPSDM.mWGS84
SpeedMeteo Stationm/sRelative wind speed
DirectionMeteo StationdegRelative wind direction
TemperatureMeteo Stationdeg CelciusAir temperature
PressureMeteo StationPaAtmospheric pressure
HumidityMeteo Station%Relative humidity
Missing or incorrect values are displayed as -999
Metereological data collected by the RV Zeeleeuw from 2009-04-08 07:39:33 to 2009-04-08 15:44:35
Time Latitude Longitude Speed Direction Temperature Pressure Humidity
2009-04-08 07:40 51°13.683 2°55.888 3.6 20 7.9 100720 95
2009-04-08 07:41 51°13.692 2°55.795 3.4 37 7.8 100710 95
2009-04-08 07:42 51°13.69 2°55.745 5 25 7.9 100700 95
2009-04-08 07:43 51°13.714 2°55.746 4 53 7.9 100720 95
2009-04-08 07:44 51°13.777 2°55.684 4.4 57 7.9 100710 94
2009-04-08 07:45 51°13.887 2°55.591 5.1 52 7.9 100700 93
2009-04-08 07:46 51°14.019 2°55.494 1.9 309 8 100710 94
2009-04-08 07:47 51°14.153 2°55.389 4.2 305 8 100700 93
2009-04-08 07:48 51°14.273 2°55.238 9.4 309 8 100710 93
2009-04-08 07:49 51°14.372 2°55.039 8.3 302 8 100710 93
2009-04-08 07:50 51°14.506 2°54.858 6.7 61 8 100700 93
2009-04-08 07:51 51°14.67 2°54.699 8.2 285 7.9 100700 93
2009-04-08 07:52 51°14.836 2°54.535 6.5 286 7.9 100700 94
2009-04-08 07:53 51°15.002 2°54.374 5.4 285 7.9 100700 94
2009-04-08 07:54 51°15.166 2°54.209 6.6 308 7.9 100700 94
2009-04-08 07:55 51°15.333 2°54.048 7.7 14 7.9 100700 94
2009-04-08 07:56 51°15.5 2°53.885 7.4 280 8 100700 94
2009-04-08 07:57 51°15.666 2°53.722 4.6 280 7.9 100700 93
2009-04-08 07:58 51°15.832 2°53.56 8.7 281 8 100700 94
2009-04-08 07:59 51°16.001 2°53.404 5.7 285 8 100690 94
2009-04-08 08:00 51°16.169 2°53.248 8 80 8 100690 94
2009-04-08 08:01 51°16.345 2°53.111 8.4 79 8 100700 94
2009-04-08 08:02 51°16.522 2°52.983 6.6 290 8 100700 94
2009-04-08 08:03 51°16.697 2°52.855 5.6 308 8 100690 94
2009-04-08 08:04 51°16.869 2°52.73 10.6 54 8.1 100690 94
2009-04-08 08:05 51°17.042 2°52.614 8 50 8.1 100690 94
2009-04-08 08:06 51°17.218 2°52.54 6.1 75 8.1 100690 93
2009-04-08 08:07 51°17.37 2°52.671 8.1 34 8.2 100690 94
2009-04-08 08:08 51°17.469 2°52.911 11.2 27 8.2 100670 93
2009-04-08 08:09 51°17.565 2°53.153 10 23 8.1 100670 94
2009-04-08 08:10 51°17.669 2°53.385 7.8 30 8.1 100670 94
2009-04-08 08:11 51°17.778 2°53.61 10.4 29 8.1 100670 94
2009-04-08 08:12 51°17.886 2°53.841 10.6 30 8.1 100680 94
2009-04-08 08:13 51°17.993 2°54.07 12 30 8.1 100680 94
2009-04-08 08:14 51°18.099 2°54.304 10.8 32 8.1 100670 94
2009-04-08 08:15 51°18.204 2°54.538 7.6 25 8.1 100670 94
2009-04-08 08:16 51°18.313 2°54.77 11.5 33 8.1 100680 94
2009-04-08 08:17 51°18.423 2°54.999 11.1 31 8.1 100680 94
2009-04-08 08:18 51°18.529 2°55.225 9 26 8.1 100680 94
2009-04-08 08:19 51°18.634 2°55.456 9.6 27 8.1 100670 94
2009-04-08 08:20 51°18.739 2°55.686 8 30 8.2 100680 94
2009-04-08 08:21 51°18.845 2°55.916 10 30 8.2 100690 94
2009-04-08 08:22 51°18.948 2°56.15 9.4 29 8.2 100680 94
2009-04-08 08:23 51°19.054 2°56.377 10.5 32 8.2 100670 94
2009-04-08 08:24 51°19.158 2°56.604 10.2 26 8.2 100680 94
2009-04-08 08:25 51°19.26 2°56.835 10.1 29 8.2 100670 94
2009-04-08 08:26 51°19.371 2°57.06 10 31 8.2 100680 94
2009-04-08 08:27 51°19.478 2°57.282 8.7 25 8.2 100680 94
2009-04-08 08:28 51°19.579 2°57.512 10.5 26 8.2 100680 94
2009-04-08 08:29 51°19.655 2°57.768 11.2 18 8.2 100670 94
2009-04-08 08:30 51°19.727 2°58.028 9.7 24 8.2 100670 94
2009-04-08 08:31 51°19.799 2°58.294 11.3 27 8.2 100670 94
2009-04-08 08:32 51°19.876 2°58.556 9 19 8.2 100670 94
2009-04-08 08:33 51°19.953 2°58.818 11.4 24 8.2 100670 94
2009-04-08 08:34 51°20.029 2°59.085 11.6 23 8.2 100680 94
2009-04-08 08:35 51°20.106 2°59.349 10.2 23 8.2 100680 94
2009-04-08 08:36 51°20.184 2°59.615 9.1 24 8.2 100680 94
2009-04-08 08:37 51°20.262 2°59.882 11.5 22 8.2 100680 94
2009-04-08 08:38 51°20.333 3°0.156 11.4 27 8.2 100690 95
2009-04-08 08:39 51°20.405 3°0.432 11.4 23 8.2 100680 94
2009-04-08 08:40 51°20.482 3°0.708 11.2 22 8.2 100690 95
2009-04-08 08:41 51°20.559 3°0.989 10.6 24 8.2 100690 95
2009-04-08 08:42 51°20.633 3°1.265 10.8 18 8.2 100680 95
2009-04-08 08:43 51°20.709 3°1.541 10.1 25 8.2 100680 95
2009-04-08 08:44 51°20.792 3°1.817 10 25 8.2 100680 95
2009-04-08 08:45 51°20.869 3°2.096 10 20 8.2 100680 95
2009-04-08 08:46 51°20.949 3°2.373 9.6 17 8.2 100670 95
2009-04-08 08:47 51°21.031 3°2.648 12.8 21 8.2 100680 96
2009-04-08 08:48 51°21.109 3°2.93 12.3 23 8.2 100680 96
2009-04-08 08:49 51°21.186 3°3.211 12 21 8.2 100670 96
2009-04-08 08:50 51°21.259 3°3.494 11.8 21 8.2 100680 95
2009-04-08 08:51 51°21.334 3°3.777 11.8 21 8.3 100690 96
2009-04-08 08:52 51°21.403 3°4.064 13 21 8.3 100680 95
2009-04-08 08:53 51°21.466 3°4.357 13.1 20 8.3 100670 95
2009-04-08 08:54 51°21.534 3°4.651 11.4 19 8.3 100690 96
2009-04-08 08:55 51°21.6 3°4.945 12.4 17 8.3 100690 95
2009-04-08 08:56 51°21.666 3°5.24 12.4 22 8.3 100690 95
2009-04-08 08:57 51°21.736 3°5.533 12.4 26 8.4 100680 95
2009-04-08 08:58 51°21.803 3°5.825 12.3 22 8.4 100700 95
2009-04-08 08:59 51°21.873 3°6.119 10.9 14 8.4 100690 95
2009-04-08 09:00 51°21.943 3°6.415 11 19 8.4 100690 95
2009-04-08 09:01 51°22.011 3°6.713 9.5 22 8.4 100700 95
2009-04-08 09:02 51°22.079 3°7.011 12.5 24 8.4 100690 95
2009-04-08 09:03 51°22.144 3°7.314 13.3 23 8.5 100700 95
2009-04-08 09:04 51°22.212 3°7.615 10.6 21 8.5 100700 95
2009-04-08 09:05 51°22.28 3°7.917 12.1 16 8.5 100690 95
2009-04-08 09:06 51°22.347 3°8.217 12.7 22 8.5 100700 95
2009-04-08 09:07 51°22.416 3°8.515 10.4 25 8.5 100700 95
2009-04-08 09:08 51°22.484 3°8.813 10 20 8.5 100700 95
2009-04-08 09:09 51°22.55 3°9.113 12.8 20 8.6 100700 94
2009-04-08 09:10 51°22.616 3°9.416 10.6 15 8.6 100700 94
2009-04-08 09:11 51°22.679 3°9.715 11.5 20 8.6 100700 94
2009-04-08 09:12 51°22.746 3°10.019 12.6 26 8.6 100700 94
2009-04-08 09:13 51°22.819 3°10.316 7.8 16 8.6 100700 94
2009-04-08 09:14 51°22.949 3°10.547 6.5 56 8.6 100710 94
2009-04-08 09:15 51°23.132 3°10.598 6.4 55 8.6 100720 95
2009-04-08 09:16 51°23.316 3°10.52 8.9 304 8.6 100730 95
2009-04-08 09:17 51°23.487 3°10.406 7 308 8.6 100720 95
2009-04-08 09:18 51°23.595 3°10.35 9 56 8.6 100730 95
2009-04-08 09:19 51°23.651 3°10.427 12 32 8.6 100700 95
2009-04-08 09:20 51°23.662 3°10.503 12.6 19 8.6 100690 95
2009-04-08 09:21 51°23.668 3°10.561 13.7 15 8.6 100690 95
2009-04-08 09:22 51°23.672 3°10.614 13.1 18 8.6 100700 95
2009-04-08 09:23 51°23.677 3°10.689 11.7 21 8.6 100690 95
2009-04-08 09:24 51°23.677 3°10.806 12.7 20 8.6 100710 95
2009-04-08 09:25 51°23.662 3°10.914 10.6 6 8.6 100700 95
2009-04-08 09:26 51°23.646 3°11.019 13.5 13 8.6 100700 95
2009-04-08 09:27 51°23.638 3°11.13 12.4 11 8.6 100700 95
2009-04-08 09:28 51°23.642 3°11.242 12.3 24 8.6 100690 95
2009-04-08 09:29 51°23.657 3°11.351 12 23 8.6 100680 95
2009-04-08 09:30 51°23.678 3°11.454 13.2 29 8.6 100690 95
2009-04-08 09:31 51°23.705 3°11.551 12.3 32 8.6 100690 95
2009-04-08 09:32 51°23.73 3°11.649 11.2 30 8.6 100690 95
2009-04-08 09:33 51°23.751 3°11.749 11.5 28 8.6 100690 95
2009-04-08 09:34 51°23.774 3°11.849 13.3 30 8.6 100700 95
2009-04-08 09:35 51°23.798 3°11.949 13 32 8.7 100700 95
2009-04-08 09:36 51°23.824 3°12.049 14.1 33 8.7 100700 95
2009-04-08 09:37 51°23.852 3°12.147 10.9 30 8.7 100690 95
2009-04-08 09:38 51°23.879 3°12.247 12.6 28 8.8 100700 94
2009-04-08 09:39 51°23.904 3°12.349 12.7 30 8.8 100680 94
2009-04-08 09:40 51°23.923 3°12.453 10.4 22 8.8 100700 94
2009-04-08 09:41 51°23.935 3°12.556 14.7 20 8.9 100700 94
2009-04-08 09:42 51°23.943 3°12.658 11.3 16 8.9 100690 93
2009-04-08 09:43 51°23.942 3°12.759 13.6 11 8.9 100700 93
2009-04-08 09:44 51°23.936 3°12.858 11.5 2 8.9 100700 93
2009-04-08 09:45 51°23.925 3°12.951 14 359 8.9 100700 93
2009-04-08 09:46 51°23.911 3°13.044 11.8 360 8.9 100700 93
2009-04-08 09:47 51°23.889 3°13.138 15 352 8.9 100710 93
2009-04-08 09:48 51°23.869 3°13.234 11.4 355 8.9 100700 93
2009-04-08 09:49 51°23.848 3°13.333 12.8 352 9 100700 93
2009-04-08 09:50 51°23.827 3°13.432 9.9 -999 9 100700 93
2009-04-08 09:51 51°23.808 3°13.536 12.3 359 9 100700 93
2009-04-08 09:52 51°23.789 3°13.64 13.1 4 9 100700 93
2009-04-08 09:53 51°23.771 3°13.746 11.8 3 9 100700 93
2009-04-08 09:54 51°23.753 3°13.854 13 360 9 100700 93
2009-04-08 09:55 51°23.736 3°13.961 12.9 -999 9.1 100700 93
2009-04-08 09:56 51°23.718 3°14.068 12.8 359 9.1 100700 92
2009-04-08 09:57 51°23.708 3°14.186 12.6 12 9 100690 93
2009-04-08 09:58 51°23.706 3°14.312 11.6 17 9.1 100700 93
2009-04-08 09:59 51°23.704 3°14.439 12.5 12 9.1 100700 93
2009-04-08 10:00 51°23.694 3°14.558 8.9 6 9.1 100710 92
2009-04-08 10:01 51°23.685 3°14.675 8.3 4 9.1 100700 92
2009-04-08 10:02 51°23.676 3°14.789 12.5 5 9.1 100710 92
2009-04-08 10:03 51°23.665 3°14.906 10.6 2 9.1 100700 93
2009-04-08 10:04 51°23.664 3°15.007 9.5 6 9.1 100700 93
2009-04-08 10:05 51°23.668 3°15.097 11.5 6 9.2 100710 93
2009-04-08 10:06 51°23.675 3°15.182 13.8 9 9.1 100700 93
2009-04-08 10:07 51°23.686 3°15.266 14.1 7 9.1 100700 93
2009-04-08 10:08 51°23.692 3°15.376 13.3 12 9.1 100690 93
2009-04-08 10:09 51°23.707 3°15.519 13 41 9.1 100700 93
2009-04-08 10:10 51°23.767 3°15.627 11 50 9.1 100720 93
2009-04-08 10:11 51°23.882 3°15.637 10.2 54 9.1 100720 93
2009-04-08 10:12 51°24.054 3°15.608 9.3 52 9.1 100730 93
2009-04-08 10:13 51°24.243 3°15.576 5.5 306 9.1 100720 93
2009-04-08 10:14 51°24.437 3°15.546 7.2 56 9.1 100730 93
2009-04-08 10:15 51°24.629 3°15.514 7.2 50 9.1 100720 93
2009-04-08 10:16 51°24.822 3°15.489 7.3 13 9.1 100720 93
2009-04-08 10:17 51°25.006 3°15.43 7.7 306 9.1 100720 93
2009-04-08 10:18 51°25.174 3°15.322 6.8 302 9.1 100730 94
2009-04-08 10:19 51°25.334 3°15.195 6.4 307 9.1 100720 94
2009-04-08 10:20 51°25.494 3°15.065 6.5 302 9.1 100720 94
2009-04-08 10:21 51°25.652 3°14.932 7.2 305 9.1 100720 94
2009-04-08 10:22 51°25.809 3°14.796 7.2 310 9.1 100720 94
2009-04-08 10:23 51°25.965 3°14.66 9.8 308 9.1 100720 94
2009-04-08 10:24 51°26.118 3°14.523 9.8 308 9.1 100720 94
2009-04-08 10:25 51°26.274 3°14.388 6.4 305 9.2 100710 94
2009-04-08 10:26 51°26.444 3°14.303 6.3 306 9.1 100700 93
2009-04-08 10:27 51°26.628 3°14.276 6.2 56 9.2 100710 93
2009-04-08 10:28 51°26.813 3°14.255 6.3 56 9.2 100710 93
2009-04-08 10:29 51°26.917 3°14.243 10.7 314 9.2 100710 93
2009-04-08 10:30 51°26.964 3°14.247 10.3 56 9.2 100710 94
2009-04-08 10:31 51°27.015 3°14.309 11.3 44 9.2 100700 94
2009-04-08 10:32 51°27.039 3°14.447 10.5 23 9.2 100670 93
2009-04-08 10:33 51°27.043 3°14.571 13.2 19 9.2 100690 93
2009-04-08 10:34 51°27.042 3°14.679 15.8 16 9.2 100680 93
2009-04-08 10:35 51°27.038 3°14.785 14.3 10 9.2 100680 93
2009-04-08 10:36 51°27.031 3°14.889 12.4 15 9.2 100680 94
2009-04-08 10:37 51°27.032 3°15.005 11.5 17 9.2 100670 94
2009-04-08 10:38 51°27.036 3°15.122 10.9 23 9.2 100680 94
2009-04-08 10:39 51°27.041 3°15.239 11.5 23 9.2 100680 94
2009-04-08 10:40 51°27.045 3°15.352 12.7 22 9.2 100680 94
2009-04-08 10:41 51°27.051 3°15.466 12.1 20 9.2 100680 94
2009-04-08 10:42 51°27.058 3°15.578 10.4 22 9.2 100680 94
2009-04-08 10:43 51°27.066 3°15.689 11.2 20 9.2 100680 94
2009-04-08 10:44 51°27.074 3°15.799 12.4 25 9.2 100680 94
2009-04-08 10:45 51°27.084 3°15.907 10.6 24 9.2 100680 94
2009-04-08 10:46 51°27.095 3°16.015 12 28 9.2 100690 94
2009-04-08 10:47 51°27.111 3°16.12 9.3 33 9.3 100680 94
2009-04-08 10:48 51°27.132 3°16.224 9.6 38 9.3 100680 94
2009-04-08 10:49 51°27.16 3°16.319 8.8 54 9.3 100690 93
2009-04-08 10:50 51°27.198 3°16.397 6.9 58 9.3 100700 93
2009-04-08 10:51 51°27.242 3°16.454 9.3 54 9.4 100710 93
2009-04-08 10:52 51°27.288 3°16.502 10.1 59 9.4 100700 93
2009-04-08 10:53 51°27.335 3°16.54 8.4 58 9.5 100690 92
2009-04-08 10:54 51°27.378 3°16.572 9.5 52 9.4 100700 92
2009-04-08 10:55 51°27.42 3°16.594 11.2 54 9.4 100700 92
2009-04-08 10:56 51°27.463 3°16.614 11.8 51 9.5 100680 92
2009-04-08 10:57 51°27.506 3°16.636 9.7 54 9.5 100690 92
2009-04-08 10:58 51°27.553 3°16.664 11.3 56 9.5 100690 92
2009-04-08 10:59 51°27.605 3°16.709 7.8 51 9.5 100700 92
2009-04-08 11:00 51°27.657 3°16.762 10.8 51 9.6 100700 92
2009-04-08 11:01 51°27.708 3°16.806 9.8 56 9.6 100700 91
2009-04-08 11:02 51°27.76 3°16.847 10.1 55 9.6 100690 91
2009-04-08 11:03 51°27.812 3°16.892 9.3 50 9.6 100700 92
2009-04-08 11:04 51°27.865 3°16.953 9.9 56 9.6 100690 92
2009-04-08 11:05 51°27.912 3°17.034 5.8 55 9.6 100720 92
2009-04-08 11:06 51°27.959 3°17.102 10.1 55 9.7 100710 92
2009-04-08 11:07 51°28.005 3°17.145 9.6 56 9.6 100710 92
2009-04-08 11:08 51°28.047 3°17.167 9.9 57 9.5 100700 92
2009-04-08 11:09 51°28.093 3°17.192 9.1 53 9.5 100700 92
2009-04-08 11:10 51°28.148 3°17.23 6.8 56 9.5 100700 93
2009-04-08 11:11 51°28.202 3°17.302 8.7 45 9.5 100710 93
2009-04-08 11:12 51°28.239 3°17.404 10.3 32 9.5 100680 93
2009-04-08 11:13 51°28.256 3°17.512 11.7 20 9.5 100690 93
2009-04-08 11:14 51°28.262 3°17.613 11.7 12 9.5 100690 93
2009-04-08 11:15 51°28.266 3°17.699 10 10 9.5 100690 93
2009-04-08 11:16 51°28.269 3°17.779 11.7 9 9.5 100690 93
2009-04-08 11:17 51°28.272 3°17.855 11.1 8 9.5 100690 94
2009-04-08 11:18 51°28.252 3°17.941 11.5 343 9.5 100700 93
2009-04-08 11:19 51°28.215 3°17.97 13.4 306 9.5 100710 93
2009-04-08 11:20 51°28.165 3°17.855 15.3 306 9.6 100700 93
2009-04-08 11:21 51°28.089 3°17.66 16.1 306 9.6 100690 93
2009-04-08 11:22 51°28.003 3°17.441 16.8 305 9.6 100700 93
2009-04-08 11:23 51°27.917 3°17.218 15.9 304 9.6 100700 93
2009-04-08 11:24 51°27.831 3°16.995 13.1 306 9.7 100670 93
2009-04-08 11:25 51°27.744 3°16.773 17.6 306 9.7 100700 93
2009-04-08 11:26 51°27.656 3°16.547 17.4 309 9.7 100700 93
2009-04-08 11:27 51°27.57 3°16.32 16 308 9.7 100710 93
2009-04-08 11:28 51°27.484 3°16.089 18.2 307 9.7 100710 93
2009-04-08 11:29 51°27.409 3°15.849 17.6 309 9.7 100700 93
2009-04-08 11:30 51°27.339 3°15.605 17.6 309 9.7 100710 93
2009-04-08 11:31 51°27.27 3°15.36 16 306 9.7 100700 94
2009-04-08 11:32 51°27.202 3°15.116 14.6 302 9.7 100700 94
2009-04-08 11:33 51°27.133 3°14.873 17.7 306 9.7 100710 94
2009-04-08 11:34 51°27.064 3°14.63 16.6 307 9.7 100710 94
2009-04-08 11:35 51°26.997 3°14.399 16.4 310 9.7 100710 94
2009-04-08 11:36 51°26.968 3°14.289 10.6 309 9.8 100720 94
2009-04-08 11:37 51°26.966 3°14.259 12.4 309 9.8 100730 94
2009-04-08 11:38 51°26.982 3°14.276 9.6 304 9.8 100740 94
2009-04-08 11:39 51°27.002 3°14.31 5.9 304 9.8 100750 94
2009-04-08 11:40 51°27.02 3°14.351 8.7 303 9.7 100750 94
2009-04-08 11:41 51°27.035 3°14.394 11.2 312 9.7 100740 94
2009-04-08 11:42 51°27.048 3°14.439 11.6 50 9.7 100750 94
2009-04-08 11:43 51°27.062 3°14.483 11.7 52 9.7 100740 94
2009-04-08 11:44 51°27.077 3°14.525 8.4 56 9.7 100740 94
2009-04-08 11:45 51°27.091 3°14.566 10.1 52 9.7 100750 94
2009-04-08 11:46 51°27.105 3°14.61 10.9 53 9.8 100740 94
2009-04-08 11:47 51°27.118 3°14.656 10.3 55 9.7 100750 94
2009-04-08 11:48 51°27.129 3°14.7 7.9 56 9.8 100750 94
2009-04-08 11:49 51°27.141 3°14.745 11 54 9.7 100750 94
2009-04-08 11:50 51°27.153 3°14.787 11.2 53 9.7 100740 94
2009-04-08 11:51 51°27.167 3°14.829 11.5 59 9.7 100740 94
2009-04-08 11:52 51°27.181 3°14.869 9.5 52 9.7 100740 94
2009-04-08 11:53 51°27.195 3°14.91 11 51 9.7 100740 94
2009-04-08 11:54 51°27.208 3°14.953 8.4 54 9.7 100750 94
2009-04-08 11:55 51°27.222 3°14.995 9.2 55 9.7 100740 94
2009-04-08 11:56 51°27.237 3°15.036 10.6 306 9.8 100750 95
2009-04-08 11:57 51°27.254 3°15.077 7.9 306 9.9 100750 95
2009-04-08 11:58 51°27.297 3°15.073 8.4 309 9.9 100740 95
2009-04-08 11:59 51°27.392 3°14.983 9.3 305 9.9 100740 94
2009-04-08 12:00 51°27.511 3°14.813 9.2 306 9.9 100740 94
2009-04-08 12:01 51°27.64 3°14.606 12.2 304 9.9 100730 94
2009-04-08 12:02 51°27.764 3°14.378 9.8 306 9.9 100740 94
2009-04-08 12:03 51°27.885 3°14.146 11.5 311 9.9 100730 94
2009-04-08 12:04 51°28.007 3°13.917 12.4 304 9.8 100730 94
2009-04-08 12:05 51°28.13 3°13.686 10 306 9.8 100740 94
2009-04-08 12:06 51°28.252 3°13.458 9.4 305 9.8 100730 94
2009-04-08 12:07 51°28.377 3°13.227 11.1 308 9.8 100730 94
2009-04-08 12:08 51°28.499 3°12.998 12.3 305 9.9 100730 94
2009-04-08 12:09 51°28.622 3°12.769 12.7 307 9.9 100730 94
2009-04-08 12:10 51°28.746 3°12.538 12.5 309 9.9 100740 94
2009-04-08 12:11 51°28.87 3°12.308 14.5 308 9.9 100740 94
2009-04-08 12:12 51°28.996 3°12.079 14.2 310 9.9 100730 94
2009-04-08 12:13 51°29.124 3°11.851 11.2 307 9.9 100740 94
2009-04-08 12:14 51°29.253 3°11.62 10.8 302 9.9 100730 94
2009-04-08 12:15 51°29.381 3°11.4 13.3 308 9.9 100740 94
2009-04-08 12:16 51°29.511 3°11.177 12.1 308 9.9 100740 94
2009-04-08 12:17 51°29.642 3°10.956 12.4 307 9.9 100750 94
2009-04-08 12:18 51°29.771 3°10.731 13.5 305 9.8 100750 95
2009-04-08 12:19 51°29.903 3°10.507 10.9 306 9.8 100750 94
2009-04-08 12:20 51°30.036 3°10.284 12.7 307 9.8 100750 95
2009-04-08 12:21 51°30.168 3°10.058 13.2 306 9.7 100750 95
2009-04-08 12:22 51°30.296 3°9.832 11.5 303 9.7 100740 95
2009-04-08 12:23 51°30.413 3°9.598 13.3 305 9.7 100740 95
2009-04-08 12:24 51°30.529 3°9.365 15 304 9.7 100730 95
2009-04-08 12:25 51°30.647 3°9.134 14 311 9.6 100750 95
2009-04-08 12:26 51°30.768 3°8.909 13.8 308 9.6 100750 95
2009-04-08 12:27 51°30.887 3°8.686 11.3 304 9.6 100750 96
2009-04-08 12:28 51°30.996 3°8.452 13.5 301 9.6 100750 96
2009-04-08 12:29 51°31.105 3°8.218 11.1 307 9.5 100750 96
2009-04-08 12:30 51°31.217 3°7.981 10.9 305 9.5 100740 96
2009-04-08 12:31 51°31.325 3°7.748 13.4 310 9.5 100750 96
2009-04-08 12:32 51°31.435 3°7.507 10.8 310 9.5 100750 96
2009-04-08 12:33 51°31.54 3°7.269 13.1 304 9.4 100750 96
2009-04-08 12:34 51°31.653 3°7.032 13.6 308 9.5 100740 96
2009-04-08 12:35 51°31.77 3°6.801 13.1 308 9.4 100760 97
2009-04-08 12:36 51°31.888 3°6.575 13.9 308 9.4 100760 97
2009-04-08 12:37 51°32.006 3°6.352 13 306 9.5 100750 97
2009-04-08 12:38 51°32.124 3°6.126 12.8 303 9.5 100750 97
2009-04-08 12:39 51°32.243 3°5.896 12 301 9.5 100750 97
2009-04-08 12:40 51°32.36 3°5.672 11.9 303 9.5 100750 97
2009-04-08 12:41 51°32.475 3°5.441 14.1 306 9.5 100750 97
2009-04-08 12:42 51°32.595 3°5.214 12.5 306 9.6 100750 97
2009-04-08 12:43 51°32.709 3°4.975 14.4 310 9.6 100750 97
2009-04-08 12:44 51°32.819 3°4.731 13.2 305 9.6 100760 97
2009-04-08 12:45 51°32.929 3°4.488 13.4 304 9.6 100750 97
2009-04-08 12:46 51°33.039 3°4.237 13.5 306 9.6 100750 97
2009-04-08 12:47 51°33.152 3°3.997 13.1 307 9.7 100760 96
2009-04-08 12:48 51°33.277 3°3.754 13.5 305 9.6 100750 96
2009-04-08 12:49 51°33.399 3°3.518 13.1 304 9.6 100760 96
2009-04-08 12:50 51°33.526 3°3.274 11.7 303 9.6 100760 96
2009-04-08 12:51 51°33.647 3°3.034 13.8 307 9.6 100750 96
2009-04-08 12:52 51°33.77 3°2.792 14 305 9.6 100760 96
2009-04-08 12:53 51°33.897 3°2.55 11.8 304 9.6 100750 96
2009-04-08 12:54 51°34.021 3°2.317 12.7 304 9.6 100760 96
2009-04-08 12:55 51°34.152 3°2.08 13.4 306 9.6 100760 95
2009-04-08 12:56 51°34.28 3°1.849 13.1 305 9.6 100770 95
2009-04-08 12:57 51°34.407 3°1.602 13.8 308 9.6 100760 95
2009-04-08 12:58 51°34.532 3°1.364 15.4 309 9.6 100770 95
2009-04-08 12:59 51°34.658 3°1.119 14.7 306 9.6 100760 95
2009-04-08 13:00 51°34.779 3°0.894 12.2 310 9.6 100750 94
2009-04-08 13:01 51°34.886 3°0.696 10.7 302 9.7 100770 93
2009-04-08 13:02 51°34.963 3°0.584 11.2 307 9.7 100780 93
2009-04-08 13:03 51°35.008 3°0.562 10.9 306 9.8 100780 92
2009-04-08 13:04 51°35.041 3°0.581 9.2 303 9.8 100780 91
2009-04-08 13:05 51°35.075 3°0.607 10.6 305 9.9 100790 90
2009-04-08 13:06 51°35.106 3°0.641 8.5 304 9.9 100780 90
2009-04-08 13:07 51°35.136 3°0.674 10.7 305 9.8 100790 89
2009-04-08 13:08 51°35.165 3°0.709 5.3 304 9.8 100780 89
2009-04-08 13:09 51°35.193 3°0.744 7.8 306 9.7 100780 89
2009-04-08 13:10 51°35.221 3°0.777 7.2 309 9.6 100790 90
2009-04-08 13:11 51°35.251 3°0.812 4.7 304 9.6 100790 90
2009-04-08 13:12 51°35.279 3°0.844 6.4 305 9.5 100790 91
2009-04-08 13:13 51°35.323 3°0.858 10.4 303 9.5 100790 91
2009-04-08 13:14 51°35.39 3°0.735 10.6 306 9.6 100780 91
2009-04-08 13:15 51°35.439 3°0.472 12.2 305 9.6 100750 91
2009-04-08 13:16 51°35.459 3°0.206 11.9 305 9.6 100780 91
2009-04-08 13:17 51°35.475 2°59.919 15.2 306 9.6 100760 91
2009-04-08 13:18 51°35.493 2°59.649 16.2 305 9.6 100770 91
2009-04-08 13:19 51°35.501 2°59.372 14.5 306 9.6 100760 91
2009-04-08 13:20 51°35.496 2°59.094 14.5 306 9.7 100760 90
2009-04-08 13:21 51°35.471 2°58.838 16 305 9.7 100760 89
2009-04-08 13:22 51°35.445 2°58.582 17.9 307 9.7 100760 89
2009-04-08 13:23 51°35.412 2°58.336 15.1 302 9.6 100760 88
2009-04-08 13:24 51°35.378 2°58.078 15.4 307 9.6 100760 88
2009-04-08 13:25 51°35.343 2°57.82 17.8 323 9.6 100780 87
2009-04-08 13:26 51°35.294 2°57.573 15.3 303 9.6 100760 86
2009-04-08 13:27 51°35.246 2°57.34 14.9 323 9.6 100760 85
2009-04-08 13:28 51°35.197 2°57.103 15.6 303 9.6 100750 84
2009-04-08 13:29 51°35.145 2°56.856 15.1 302 9.6 100750 83
2009-04-08 13:30 51°35.096 2°56.614 18.4 307 9.6 100780 82
2009-04-08 13:31 51°35.045 2°56.368 14.4 305 9.6 100770 81
2009-04-08 13:32 51°34.996 2°56.131 15.6 325 9.7 100770 79
2009-04-08 13:33 51°34.946 2°55.885 17.2 305 9.7 100760 78
2009-04-08 13:34 51°34.898 2°55.646 18.4 327 9.8 100750 75
2009-04-08 13:35 51°34.821 2°55.43 18.9 330 9.8 100760 75
2009-04-08 13:36 51°34.709 2°55.255 19.6 336 9.7 100750 74
2009-04-08 13:37 51°34.583 2°55.105 19.7 335 9.7 100770 75
2009-04-08 13:38 51°34.455 2°54.948 16.9 337 9.7 100760 75
2009-04-08 13:39 51°34.333 2°54.795 15.3 334 9.7 100770 75
2009-04-08 13:40 51°34.199 2°54.643 18.7 335 9.7 100760 75
2009-04-08 13:41 51°34.068 2°54.51 17.6 337 9.7 100750 76
2009-04-08 13:42 51°33.932 2°54.37 18.2 336 9.7 100750 75
2009-04-08 13:43 51°33.801 2°54.231 18.5 337 9.7 100760 74
2009-04-08 13:44 51°33.673 2°54.094 18.7 334 9.7 100730 75
2009-04-08 13:45 51°33.542 2°53.952 19.6 335 9.8 100760 75
2009-04-08 13:46 51°33.41 2°53.809 18.2 336 9.7 100740 75
2009-04-08 13:47 51°33.273 2°53.659 16 335 9.7 100720 76
2009-04-08 13:48 51°33.145 2°53.52 16.2 333 9.7 100750 76
2009-04-08 13:49 51°33.016 2°53.382 18.2 336 9.6 100730 76
2009-04-08 13:50 51°32.885 2°53.24 17.3 338 9.6 100740 76
2009-04-08 13:51 51°32.748 2°53.112 18 342 9.6 100750 76
2009-04-08 13:52 51°32.588 2°53.06 16.5 345 9.6 100730 76
2009-04-08 13:53 51°32.42 2°53.03 15.8 347 9.5 100740 76
2009-04-08 13:54 51°32.256 2°52.999 16.4 348 9.6 100730 76
2009-04-08 13:55 51°32.096 2°52.96 18.3 345 9.5 100740 76
2009-04-08 13:56 51°31.928 2°52.916 15.9 346 9.5 100760 76
2009-04-08 13:57 51°31.767 2°52.878 16.9 342 9.5 100740 77
2009-04-08 13:58 51°31.603 2°52.835 17.4 347 9.5 100750 77
2009-04-08 13:59 51°31.441 2°52.788 17.5 346 9.5 100760 77
2009-04-08 14:00 51°31.274 2°52.737 16 344 9.5 100760 77
2009-04-08 14:01 51°31.11 2°52.693 18.6 347 9.5 100760 77
2009-04-08 14:02 51°30.947 2°52.65 15.4 346 9.5 100760 77
2009-04-08 14:03 51°30.787 2°52.608 16.8 347 9.5 100770 78
2009-04-08 14:04 51°30.627 2°52.566 15.7 344 9.5 100750 78
2009-04-08 14:05 51°30.46 2°52.53 15.6 347 9.5 100770 78
2009-04-08 14:06 51°30.291 2°52.492 15 345 9.5 100770 79
2009-04-08 14:07 51°30.121 2°52.464 15 346 9.5 100780 79
2009-04-08 14:08 51°29.948 2°52.442 13.7 346 9.4 100780 80
2009-04-08 14:09 51°29.777 2°52.419 13.6 345 9.4 100770 81
2009-04-08 14:10 51°29.603 2°52.393 15.8 346 9.4 100790 81
2009-04-08 14:11 51°29.428 2°52.366 17.5 345 9.4 100770 81
2009-04-08 14:12 51°29.255 2°52.339 14.2 344 9.4 100770 81
2009-04-08 14:13 51°29.084 2°52.309 15.3 346 9.4 100780 81
2009-04-08 14:14 51°28.91 2°52.279 12.8 345 9.4 100780 81
2009-04-08 14:15 51°28.737 2°52.249 15.8 345 9.4 100790 82
2009-04-08 14:16 51°28.564 2°52.215 15.7 346 9.4 100780 82
2009-04-08 14:17 51°28.388 2°52.19 15.6 346 9.4 100780 82
2009-04-08 14:18 51°28.212 2°52.172 15.5 346 9.4 100770 83
2009-04-08 14:19 51°28.035 2°52.154 14.8 346 9.4 100780 83
2009-04-08 14:20 51°27.856 2°52.159 14.5 346 9.4 100800 83
2009-04-08 14:21 51°27.68 2°52.175 14.3 349 9.4 100790 83
2009-04-08 14:22 51°27.506 2°52.179 14.9 348 9.4 100790 83
2009-04-08 14:23 51°27.327 2°52.184 14.3 348 9.4 100800 84
2009-04-08 14:24 51°27.15 2°52.189 16.2 346 9.4 100800 84
2009-04-08 14:25 51°26.973 2°52.196 14.7 347 9.4 100800 84
2009-04-08 14:26 51°26.795 2°52.201 15.7 349 9.4 100790 84
2009-04-08 14:27 51°26.615 2°52.205 13.7 347 9.5 100790 83
2009-04-08 14:28 51°26.434 2°52.207 15.2 347 9.5 100780 83
2009-04-08 14:29 51°26.254 2°52.212 15.5 347 9.5 100800 84
2009-04-08 14:30 51°26.075 2°52.215 13.8 349 9.4 100800 84
2009-04-08 14:31 51°25.895 2°52.215 13.7 346 9.4 100790 84
2009-04-08 14:32 51°25.715 2°52.217 14.9 345 9.4 100800 84
2009-04-08 14:33 51°25.535 2°52.216 13.2 347 9.4 100800 84
2009-04-08 14:34 51°25.355 2°52.214 13.4 347 9.4 100820 84
2009-04-08 14:35 51°25.173 2°52.212 11.9 347 9.4 100820 84
2009-04-08 14:36 51°24.99 2°52.207 13.4 349 9.4 100820 84
2009-04-08 14:37 51°24.809 2°52.205 12.9 349 9.5 100840 84
2009-04-08 14:38 51°24.626 2°52.199 14.2 349 9.5 100830 84
2009-04-08 14:39 51°24.442 2°52.191 13.1 349 9.5 100830 84
2009-04-08 14:40 51°24.26 2°52.185 13.5 347 9.5 100830 88
2009-04-08 14:41 51°24.077 2°52.179 14.1 349 9.5 100820 87
2009-04-08 14:42 51°23.896 2°52.174 14.1 348 9.6 100810 87
2009-04-08 14:43 51°23.715 2°52.167 15.2 349 9.6 100810 87
2009-04-08 14:44 51°23.535 2°52.16 13.2 349 9.6 100820 87
2009-04-08 14:45 51°23.354 2°52.156 13.9 347 9.6 100820 87
2009-04-08 14:46 51°23.171 2°52.151 13.5 348 9.6 100830 86
2009-04-08 14:47 51°22.986 2°52.149 13.1 351 9.7 100830 86
2009-04-08 14:48 51°22.801 2°52.144 11.9 348 9.6 100830 86
2009-04-08 14:49 51°22.617 2°52.138 11.9 348 9.7 100840 87
2009-04-08 14:50 51°22.432 2°52.135 14.2 349 9.7 100840 86
2009-04-08 14:51 51°22.248 2°52.128 14.7 349 9.8 100830 85
2009-04-08 14:52 51°22.064 2°52.124 13.4 349 9.8 100840 85
2009-04-08 14:53 51°21.878 2°52.116 14.5 348 9.8 100840 84
2009-04-08 14:54 51°21.692 2°52.11 13.4 348 10 100820 83
2009-04-08 14:55 51°21.506 2°52.102 14.8 347 10 100820 82
2009-04-08 14:56 51°21.318 2°52.104 13.9 350 10 100830 83
2009-04-08 14:57 51°21.136 2°52.087 13.6 351 10 100830 83
2009-04-08 14:58 51°20.952 2°52.077 14.4 353 10 100830 83
2009-04-08 14:59 51°20.766 2°52.071 13.2 351 10 100830 83
2009-04-08 15:00 51°20.579 2°52.083 12.9 350 10 100830 83
2009-04-08 15:01 51°20.39 2°52.094 12.2 349 10 100830 84
2009-04-08 15:02 51°20.202 2°52.107 14.2 349 10 100850 84
2009-04-08 15:03 51°20.013 2°52.12 14.3 352 10 100840 84
2009-04-08 15:04 51°19.825 2°52.137 13.7 352 10 100840 84
2009-04-08 15:05 51°19.635 2°52.151 11.9 352 10 100840 83
2009-04-08 15:06 51°19.445 2°52.164 13.9 351 10.1 100860 83
2009-04-08 15:07 51°19.254 2°52.175 13 352 10.1 100860 83
2009-04-08 15:08 51°19.064 2°52.185 14.6 356 10.1 100850 83
2009-04-08 15:09 51°18.875 2°52.196 12 352 10.1 100860 82
2009-04-08 15:10 51°18.686 2°52.207 12.7 354 10.2 100860 82
2009-04-08 15:11 51°18.497 2°52.215 12.8 354 10.2 100860 82
2009-04-08 15:12 51°18.309 2°52.228 12.3 354 10.2 100860 81
2009-04-08 15:13 51°18.121 2°52.24 12.8 355 10.2 100860 81
2009-04-08 15:14 51°17.932 2°52.251 12.1 352 10.2 100870 82
2009-04-08 15:15 51°17.742 2°52.259 12.5 356 10.2 100870 81
2009-04-08 15:16 51°17.553 2°52.268 11.6 355 10.2 100880 81
2009-04-08 15:17 51°17.363 2°52.278 12.8 356 10.3 100870 80
2009-04-08 15:18 51°17.172 2°52.284 13.3 355 10.3 100870 79
2009-04-08 15:19 51°16.98 2°52.295 12.9 356 10.3 100870 79
2009-04-08 15:20 51°16.794 2°52.358 10.6 2 10.4 100880 79
2009-04-08 15:21 51°16.62 2°52.484 6.7 5 10.4 100890 79
2009-04-08 15:22 51°16.454 2°52.643 9.3 6 10.4 100900 78
2009-04-08 15:23 51°16.281 2°52.778 9.4 3 10.4 100890 78
2009-04-08 15:24 51°16.103 2°52.901 8.2 7 10.4 100890 77
2009-04-08 15:25 51°15.929 2°53.03 8.9 1 10.5 100900 77
2009-04-08 15:26 51°15.753 2°53.157 11.6 7 10.5 100910 77
2009-04-08 15:27 51°15.573 2°53.282 8.4 2 10.5 100900 77
2009-04-08 15:28 51°15.395 2°53.408 8.8 3 10.4 100900 78
2009-04-08 15:29 51°15.213 2°53.536 7.8 360 10.4 100910 78
2009-04-08 15:30 51°15.045 2°53.699 8.4 11 10.5 100910 78
2009-04-08 15:31 51°14.909 2°53.925 6.3 17 10.5 100920 78
2009-04-08 15:32 51°14.788 2°54.165 8.1 15 10.5 100930 77
2009-04-08 15:33 51°14.669 2°54.405 6.8 16 10.5 100940 78
2009-04-08 15:34 51°14.549 2°54.645 6.3 14 10.6 100940 78
2009-04-08 15:35 51°14.43 2°54.886 6.7 15 10.5 100940 78
2009-04-08 15:36 51°14.319 2°55.134 4.8 347 10.6 100940 78
2009-04-08 15:37 51°14.218 2°55.323 5.6 6 10.6 100950 80
2009-04-08 15:38 51°14.098 2°55.442 7.4 352 10.7 100950 78
2009-04-08 15:39 51°13.961 2°55.536 7 1 11 100950 75
2009-04-08 15:40 51°13.82 2°55.64 3.6 332 11.2 100950 71
2009-04-08 15:41 51°13.729 2°55.767 2.8 36 11.4 100960 67
2009-04-08 15:42 51°13.676 2°55.882 3.7 38 11.6 100950 66
2009-04-08 15:43 51°13.662 2°55.953 2.7 58 11.8 100960 65